Location: New Frontier Mobile Home Park
(32.8448°N, 116.9675°W)
Time: 21:50:43
(UTC+00:00)

CZ-2D R/B - Pass Details

Date: 14 July 2020
Orbit: 792 x 845 km, 98.7° (Epoch: 05 August)

Event Time Altitude Azimuth Distance (km) Brightness Sun altitude
Rises 09:09:11 0° 15° (NNE) 3,353 6.4 -32.7°
Reaches altitude 10° 09:11:32 10° 18° (NNE) 2,425 5.4 -32.5°
Enters shadow 09:15:43 53° 40° (NE) 1,010 2.8 -32.2°
